{"data":{"norad_id":67306,"intl_designator":"2026-002B","name":"STARLINK-36488","alt_names":[],"object_type":"PAYLOAD","status":"ACTIVE","operator":null,"country":"US","launch_date":"2026-01-04","launch_site_code":"AFETR","launch_vehicle":null,"mission":null,"orbit_class":"UNKNOWN","rcs_meters":null,"size_class":null,"mass_kg":null,"dimensions":null,"purposes":["comms"],"wikipedia_slug":null,"has_3d_model":false,"image_url":null,"decayed_at":null,"tle_current":{"epoch":"2026-05-24T15:44:23.575488Z","epoch_age_seconds":104843,"freshness":"FRESH","line1":"1 67306U 26002B   26144.65582842  .00017925  00000+0  65895-3 0  9998","line2":"2 67306  43.0003 256.5390 0002049 263.4567  96.6052 15.27598351 22695","mean_motion":15.27598351,"eccentricity":0.0002049,"inclination_deg":43.0003,"raan_deg":256.539,"arg_perigee_deg":263.4567,"mean_anomaly_deg":96.6052,"bstar":0.00065895,"rev_number":2269,"period_min":94.265616289605,"perigee_km":481.58830132197,"apogee_km":484.39999286605,"semimajor_km":6861.131147094,"source":"CELESTRAK","updated_at":"2026-05-25T13:38:21.514378Z"}}}